Location: Dunedin
(45.8670°S, 170.5000°E)
Time: 00:08:43
(UTC+13:00)

Cosmos 1386 Rocket - Pass Details

Date: 24 January 2019
Orbit: 930 x 1005 km, 83.0° (Epoch: 17 October)

Event Time Altitude Azimuth Distance (km) Brightness Sun altitude
Exits shadow 23:12:19 17° 6° (N) 2,209 5.9 -15.8°
Maximum altitude 23:17:06 69° 85° (E) 1,023 4.4 -16.3°
Drops below altitude 10° 23:23:12 10° 167° (SSE) 2,688 7.4 -16.9°
Sets 23:25:42 0° 169° (S) 3,633 8.2 -17.2°
